Tracking 19476 objects as of 17-Jan-2019
HD Live streaming from Space Station
objects crossing your sky now

OSCAR 5

Track OSCAR 5 now!
10-day predictions
OSCAR 5 is classified as:


NORAD ID: 4321
Int'l Code: 1970-008B
Perigee: 1,440.6 km
Apogee: 1,484.6 km
Inclination: 101.7 °
Period: 115.0 minutes
Semi major axis: 7833 km
RCS: 0.3365 m2 (medium)
Launch date: January 23, 1970
Source: Australia (AUS)
Launch site: AIR FORCE WESTERN TEST RANGE (AFWTR)

Uplink (MHz):
Downlink (MHz): 29.450
Beacon (MHz): 144.050
Mode: CW
Call sign:
Status: Inactive

aabbcc
Your satellite tracking list
Your tracking list is empty




NASA's NSSDC Master Catalog

Two Line Element Set (TLE):
1  4321U 70008B   19016.92036194 -.00000054 +00000-0 -60465-4 0  9992
2  4321 101.6702 084.6552 0028129 135.2367 276.9881 12.52166514238476
Source of the keplerian elements: AFSPC